Date String (YYYY-MM-DD hh:mm:ss) UTC,Instrument flags,absolute air pressure of the measurement (hPa),sample flow rate (lpm),inlet stack bypass flow (lpm),air temperature of the measurement (°C),ambient temperature measured by the external sensor (°C),aerosol sample conditioner tube jacket temperature (°C),OPC LED temperature (°C),internal box temperature (°C),relative humidity of the measurement (%),span deviation,mass concentration of particles derived from Lorenz-Mie calculation of OPC scattering (μg/m³),mass concentration of particles derived from Lorenz-Mie calculation of OPC scattering (μg/m³),mass concentration of particles derived from Lorenz-Mie calculation of OPC scattering (μg/m³)
DateTimeUTC,F1_M11,P_M11,Q1_M11,Q2_M11,T1_M11,T2_M11,T3_M11,T4_M11,T5_M11,U1_M11,ZSPAN_M11,X0_M11,X2_M11,X1_M11
2023-05-31 20:00:00,SystemResetWarning,0825.7,5.00,000.00,029.0,025.4,000.0,037.3,030.4,22.0,0000.0,0017.68,0005.18,0003.88
2023-05-31 20:01:00,SystemResetWarning,0825.6,5.00,000.00,029.0,025.8,000.0,037.3,030.5,21.8,0000.0,0017.95,0005.28,0003.88
2023-05-31 20:02:00,SystemResetWarning,0825.6,5.00,000.00,029.0,026.2,000.0,037.3,030.5,21.8,0000.0,0018.00,0005.31,0003.88
2023-05-31 20:03:00,SystemResetWarning,0825.6,5.00,000.00,029.0,026.5,000.0,037.3,030.6,22.3,0000.0,0017.11,0005.25,0003.87
2023-05-31 20:04:00,SystemResetWarning,0825.6,5.00,000.00,029.0,026.8,000.0,037.3,030.7,23.1,0000.0,0017.26,0005.24,0003.85
2023-05-31 20:05:00,SystemResetWarning,0825.6,5.00,000.00,029.0,027.1,000.0,037.3,030.7,22.5,0000.0,0016.60,0005.21,0003.84
2023-05-31 20:06:00,SystemResetWarning,0825.5,4.99,000.00,029.0,027.3,000.0,037.3,030.7,20.5,0000.0,0016.71,0005.22,0003.83
2023-05-31 20:07:00,SystemResetWarning,0825.5,5.00,000.00,029.1,027.5,000.0,037.4,030.8,20.3,0000.0,0017.20,0005.24,0003.83
2023-05-31 20:08:00,SystemResetWarning,0825.5,5.00,000.00,029.1,027.6,000.0,037.4,030.8,20.4,0000.0,0016.19,0005.19,0003.81
2023-05-31 20:09:00,SystemResetWarning,0825.5,4.99,000.00,029.1,027.8,000.0,037.4,030.9,20.2,0000.0,0017.42,0005.18,0003.80
2023-05-31 20:10:00,SystemResetWarning,0825.5,4.99,000.00,029.2,027.9,000.0,037.4,030.9,20.4,0000.0,0016.85,0005.22,0003.79
2023-05-31 20:11:00,SystemResetWarning,0825.5,4.99,000.00,029.2,028.0,000.0,037.4,031.0,20.9,0000.0,0017.65,0005.22,0003.77
2023-05-31 20:12:00,SystemResetWarning,0825.5,5.00,000.00,029.2,028.1,000.0,037.4,031.0,20.7,0000.0,0017.34,0005.13,0003.76
2023-05-31 20:13:00,SystemResetWarning,0825.5,4.99,000.00,029.3,027.9,000.0,037.5,031.0,21.0,0000.0,0017.42,0005.11,0003.76
2023-05-31 20:14:00,SystemResetWarning,0825.6,5.01,000.00,029.2,026.2,000.0,037.4,030.8,21.2,0000.0,0018.41,0005.10,0003.77
2023-05-31 20:15:00,SystemResetWarning,0825.6,5.00,000.00,029.2,024.9,000.0,037.3,030.5,21.3,0000.0,0018.58,0005.09,0003.77
2023-05-31 20:16:00,SystemResetWarning,0825.6,5.02,000.00,029.1,024.8,000.0,037.2,030.4,21.8,0000.0,0018.29,0005.09,0003.76
2023-05-31 20:17:00,SystemResetWarning,0825.6,5.00,000.00,029.0,025.1,000.0,037.2,030.3,22.8,0000.0,0018.04,0005.07,0003.76
2023-05-31 20:18:00,SystemResetWarning,0825.6,5.00,000.00,028.9,025.5,000.0,037.3,030.4,22.3,0000.0,0016.94,0005.04,0003.75
2023-05-31 20:19:00,SystemResetWarning,0825.7,4.99,000.00,028.9,025.9,000.0,037.3,030.4,21.5,0000.0,0016.50,0005.07,0003.75
2023-05-31 20:20:00,SystemResetWarning,0825.7,5.00,000.00,028.9,026.3,000.0,037.3,030.5,21.6,0000.0,0015.31,0005.10,0003.76
2023-05-31 20:21:00,SystemResetWarning,0825.8,5.00,000.00,028.9,026.6,000.0,037.3,030.6,21.2,0000.0,0014.46,0005.04,0003.76
2023-05-31 20:22:00,SystemResetWarning,0825.8,4.99,000.00,028.9,026.9,000.0,037.3,030.6,21.1,0000.0,0013.54,0005.00,0003.76
2023-05-31 20:23:00,SystemResetWarning,0825.8,4.99,000.00,029.0,027.1,000.0,037.3,030.7,21.1,0000.0,0013.60,0005.01,0003.75
2023-05-31 20:24:00,SystemResetWarning,0825.9,4.99,000.00,029.0,027.3,000.0,037.3,030.7,21.2,0000.0,0013.42,0005.03,0003.73
2023-05-31 20:25:00,SystemResetWarning,0825.9,5.00,000.00,029.0,027.5,000.0,037.3,030.8,21.4,0000.0,0012.92,0005.07,0003.71
2023-05-31 20:26:00,SystemResetWarning,0825.9,5.01,000.00,029.1,027.7,000.0,037.3,030.8,21.1,0000.0,0012.37,0005.11,0003.71
2023-05-31 20:27:00,SystemResetWarning,0825.9,5.01,000.00,029.1,027.8,000.0,037.3,030.8,21.0,0000.0,0013.18,0005.13,0003.71
2023-05-31 20:28:00,SystemResetWarning,0825.9,4.99,000.00,029.1,027.9,000.0,037.4,030.9,21.6,0000.0,0013.60,0005.15,0003.72
2023-05-31 20:29:00,SystemResetWarning,0825.9,4.99,000.00,029.2,028.0,000.0,037.4,030.9,22.6,0000.0,0015.03,0005.22,0003.73
2023-05-31 20:30:00,SystemResetWarning,0825.9,5.00,000.00,029.2,028.0,000.0,037.4,031.0,23.0,0000.0,0016.30,0005.29,0003.72
2023-05-31 20:31:00,SystemResetWarning,0825.9,5.00,000.00,029.2,027.9,000.0,037.4,031.0,23.2,0000.0,0016.32,0005.31,0003.70
2023-05-31 20:32:00,SystemResetWarning,0825.9,5.00,000.00,029.2,026.4,000.0,037.4,030.7,23.3,0000.0,0017.04,0005.36,0003.70
2023-05-31 20:33:00,SystemResetWarning,0825.9,5.01,000.00,029.2,025.6,000.0,037.3,030.6,24.6,0000.0,0019.73,0005.54,0003.72
2023-05-31 20:34:00,SystemResetWarning,0825.9,5.01,000.00,029.1,025.7,000.0,037.3,030.5,25.3,0000.0,0022.34,0005.66,0003.74
2023-05-31 20:35:00,SystemResetWarning,0825.9,5.00,000.00,029.0,025.9,000.0,037.3,030.5,25.5,0000.0,0023.28,0005.74,0003.78
2023-05-31 20:36:00,SystemResetWarning,0825.9,5.00,000.00,029.0,026.2,000.0,037.3,030.6,26.5,0000.0,0023.76,0005.79,0003.80
2023-05-31 20:37:00,SystemResetWarning,0825.9,5.01,000.00,029.0,026.5,000.0,037.3,030.6,26.7,0000.0,0025.23,0005.81,0003.81
2023-05-31 20:38:00,SystemResetWarning,0825.9,5.00,000.00,029.0,026.8,000.0,037.3,030.7,25.9,0000.0,0026.96,0005.86,0003.81
2023-05-31 20:39:00,SystemResetWarning,0825.9,4.99,000.00,029.0,027.1,000.0,037.3,030.7,25.2,0000.0,0027.34,0005.91,0003.80
2023-05-31 20:40:00,SystemResetWarning,0825.8,5.00,000.00,029.0,027.3,000.0,037.3,030.7,24.4,0000.0,0027.29,0005.85,0003.80
2023-05-31 20:41:00,SystemResetWarning,0825.8,5.00,000.00,029.1,027.4,000.0,037.3,030.8,24.1,0000.0,0026.55,0005.85,0003.82
2023-05-31 20:42:00,SystemResetWarning,0825.6,5.00,000.00,029.1,027.6,000.0,037.4,030.8,24.5,0000.0,0027.92,0005.84,0003.83
2023-05-31 20:43:00,SystemResetWarning,0825.7,5.00,000.00,029.1,027.7,000.0,037.4,030.9,24.5,0000.0,0028.02,0005.86,0003.84
2023-05-31 20:44:00,SystemResetWarning,0825.6,5.00,000.00,029.1,027.8,000.0,037.4,030.9,23.8,0000.0,0026.79,0005.68,0003.81
2023-05-31 20:45:00,SystemResetWarning,0825.7,5.00,000.00,029.2,027.9,000.0,037.4,030.9,23.8,0000.0,0023.58,0005.58,0003.80
2023-05-31 20:46:00,SystemResetWarning,0825.8,5.00,000.00,029.2,028.0,000.0,037.4,031.0,21.2,0000.0,0022.71,0005.51,0003.76
2023-05-31 20:47:00,SystemResetWarning,0825.8,4.99,000.00,029.3,027.9,000.0,037.5,031.0,20.5,0000.0,0022.50,0005.39,0003.72
2023-05-31 20:48:00,SystemResetWarning,0825.9,4.99,000.00,029.2,026.5,000.0,037.4,030.8,17.8,0000.0,0021.52,0005.26,0003.68
2023-05-31 20:49:00,SystemResetWarning,0825.9,5.01,000.00,029.2,025.6,000.0,037.3,030.6,18.2,0000.0,0018.68,0005.09,0003.63
2023-05-31 20:50:00,SystemResetWarning,0826.0,5.01,000.00,029.1,025.7,000.0,037.3,030.6,19.2,0000.0,0017.40,0004.99,0003.59
2023-05-31 20:51:00,SystemResetWarning,0826.0,5.00,000.00,029.1,025.9,000.0,037.3,030.6,22.2,0000.0,0016.11,0005.02,0003.59
2023-05-31 20:52:00,SystemResetWarning,0825.9,5.00,000.00,029.0,026.2,000.0,037.3,030.6,22.6,0000.0,0015.72,0004.92,0003.58
2023-05-31 20:53:00,SystemResetWarning,0826.0,4.99,000.00,029.0,026.5,000.0,037.3,030.6,22.8,0000.0,0014.40,0004.87,0003.57
2023-05-31 20:54:00,SystemResetWarning,0826.0,4.99,000.00,029.0,026.8,000.0,037.3,030.7,23.3,0000.0,0014.05,0004.84,0003.57
2023-05-31 20:55:00,SystemResetWarning,0826.2,4.99,000.00,029.0,027.1,000.0,037.3,030.7,24.0,0000.0,0014.00,0004.87,0003.58
2023-05-31 20:56:00,SystemResetWarning,0826.2,5.00,000.00,029.1,027.2,000.0,037.4,030.7,24.6,0000.0,0014.07,0004.83,0003.59
2023-05-31 20:57:00,SystemResetWarning,0826.2,5.00,000.00,029.1,027.4,000.0,037.4,030.8,24.4,0000.0,0014.28,0004.86,0003.61
2023-05-31 20:58:00,SystemResetWarning,0826.2,5.00,000.00,029.1,027.5,000.0,037.4,030.8,24.2,0000.0,0014.40,0004.91,0003.63
2023-05-31 20:59:00,SystemResetWarning,0826.2,4.99,000.00,029.1,027.6,000.0,037.4,030.8,23.9,0000.0,0015.12,0005.00,0003.68
